sat.trackr.live / text

‹ back to catalog

STARLINK-5263

NORAD 54193 · 2022-141AN

PAYLOAD ACTIVE UNKNOWN

§ Identity

Operator
Country
US
Launch date
2022-10-28
Launch site
AFWTR
Launch vehicle
Mass (kg)
RCS (m²)

Purposes: comms

External: N2YO · Heavens-Above · Gunter

§ Orbital elements

Epoch: 2026-09-20T10:27:10.687968Z

Period
93.85 min
Inclination
53.1610°
Eccentricity
0.0001344
Mean motion
15.34391710 rev/d
Perigee alt
461.8 km
Apogee alt
463.6 km
Semi-major
6,840.9 km
B*
4.8177e-5
RAAN
189.6904°
Arg perigee
88.8997°
Mean anomaly
271.2160°
Rev number
21,553

§ Raw data

STARLINK-52631 54193U 22141AN  26263.43554037  .00001251  00000+0  48177-4 0  99912 54193  53.1610 189.6904 0001344  88.8997 271.2160 15.34391710215537

JSON: /api/v1/satellites/54193 · /tle

For live sub-satellite position, see the globe view (requires WebGL).

§ Visibility from observer

Set your observer location to see the next 7 days of passes ≥ 10°. The values pass through the URL so the page stays shareable.

No JS? Fill the form by hand. The geolocation button needs JavaScript.